User: anonymous   Login
Location: Huntington Beach
(33.6600°N, 117.9980°W)
Time: 20:40:06
(UTC-07:00)
Language:

SL-16 R/B - Orbit

View from above orbital plane
View from above orbital plane
View from above satellite
View from above satellite

Ground track
Ground track

The orbit data is extracted from the following two-line orbital elements,

1 28353U 04021B   17175.22171832 +.00000280 +00000-0 +17146-3 0  9997
2 28353 071.0020 063.7142 0005775 208.3348 151.7461 14.14199113673148
Epoch (UTC): 24 June 2017 05:19:16
Eccentricity: 0.0005775
inclination: 71.0020°
perigee height: 841 km
apogee height: 849 km
right ascension of ascending node: 63.7142°
argument of perigee: 208.3348°
revolutions per day: 14.14199113
mean anomaly at epoch: 151.7461°
orbit number at epoch: 67314

The dashed part of the orbit path shows where the satellite is in the earth's shadow,  

DLR